TimeCDT,TemperatureF,Dew PointF,Humidity,Sea Level PressureIn,VisibilityMPH,Wind Direction,Wind SpeedMPH,Gust SpeedMPH,PrecipitationIn,Events,Conditions,WindDirDegrees,DateUTC
12:15 AM,42.8,26.6,53,30.24,10.0,Calm,Calm,-,N/A,,Overcast,0,2012-10-07 05:15:00
12:35 AM,41.0,26.6,57,30.24,10.0,West,3.5,-,N/A,,Overcast,280,2012-10-07 05:35:00
12:55 AM,41.0,26.6,57,30.24,10.0,West,3.5,-,N/A,,Overcast,280,2012-10-07 05:55:00
1:15 AM,41.0,28.4,61,30.24,10.0,WNW,3.5,-,N/A,,Overcast,290,2012-10-07 06:15:00
1:35 AM,41.0,26.6,57,30.24,10.0,NW,3.5,-,N/A,,Overcast,310,2012-10-07 06:35:00
1:55 AM,41.0,26.6,57,30.24,10.0,Calm,Calm,-,N/A,,Overcast,0,2012-10-07 06:55:00
2:15 AM,41.0,26.6,57,30.24,10.0,Calm,Calm,-,N/A,,Overcast,0,2012-10-07 07:15:00
2:35 AM,41.0,26.6,57,30.24,10.0,WNW,4.6,-,N/A,,Overcast,300,2012-10-07 07:35:00
2:55 AM,41.0,26.6,57,30.23,10.0,WNW,3.5,-,N/A,,Overcast,290,2012-10-07 07:55:00
3:15 AM,39.2,26.6,61,30.23,10.0,WNW,3.5,-,N/A,,Overcast,300,2012-10-07 08:15:00
3:35 AM,39.2,26.6,61,30.23,10.0,WNW,4.6,-,N/A,,Overcast,290,2012-10-07 08:35:00
3:55 AM,39.2,26.6,61,30.22,10.0,WNW,4.6,-,N/A,,Overcast,290,2012-10-07 08:55:00
4:15 AM,39.2,26.6,61,30.22,10.0,WNW,4.6,-,N/A,,Overcast,290,2012-10-07 09:15:00
4:35 AM,39.2,26.6,61,30.22,10.0,WNW,4.6,-,N/A,,Overcast,290,2012-10-07 09:35:00
4:55 AM,39.2,24.8,56,30.22,10.0,West,4.6,-,N/A,,Overcast,280,2012-10-07 09:55:00
5:15 AM,39.2,24.8,56,30.22,10.0,West,5.8,-,N/A,,Overcast,280,2012-10-07 10:15:00
5:35 AM,37.4,24.8,60,30.22,10.0,Calm,Calm,-,N/A,,Overcast,0,2012-10-07 10:35:00
5:55 AM,37.4,24.8,60,30.22,10.0,WNW,3.5,-,N/A,,Overcast,290,2012-10-07 10:55:00
6:15 AM,37.4,24.8,60,30.22,10.0,WNW,4.6,-,N/A,,Overcast,300,2012-10-07 11:15:00
6:35 AM,35.6,24.8,65,30.23,10.0,WNW,4.6,-,N/A,,Mostly Cloudy,290,2012-10-07 11:35:00
6:55 AM,33.8,24.8,70,30.23,10.0,WNW,5.8,-,N/A,,Mostly Cloudy,290,2012-10-07 11:55:00
7:15 AM,33.8,24.8,70,30.23,10.0,WNW,5.8,-,N/A,,Mostly Cloudy,290,2012-10-07 12:15:00
7:35 AM,33.8,24.8,70,30.23,10.0,WNW,5.8,-,N/A,,Scattered Clouds,290,2012-10-07 12:35:00
7:55 AM,35.6,24.8,65,30.23,10.0,WNW,3.5,-,N/A,,Scattered Clouds,290,2012-10-07 12:55:00
8:15 AM,37.4,24.8,60,30.24,10.0,WNW,5.8,-,N/A,,Scattered Clouds,290,2012-10-07 13:15:00
8:35 AM,37.4,24.8,60,30.24,10.0,WNW,5.8,-,N/A,,Clear,300,2012-10-07 13:35:00
8:55 AM,39.2,23.0,52,30.24,10.0,WNW,6.9,-,N/A,,Clear,300,2012-10-07 13:55:00
9:15 AM,42.8,21.2,42,30.25,10.0,NW,9.2,-,N/A,,Clear,310,2012-10-07 14:15:00
9:55 AM,44.6,19.4,37,30.25,10.0,WNW,10.4,-,N/A,,Clear,300,2012-10-07 14:55:00
10:15 AM,46.4,17.6,32,30.25,10.0,WNW,10.4,-,N/A,,Scattered Clouds,290,2012-10-07 15:15:00
10:35 AM,48.2,12.2,24,30.25,10.0,West,10.4,-,N/A,,Clear,280,2012-10-07 15:35:00
10:55 AM,46.4,12.2,25,30.25,10.0,West,10.4,24.2,N/A,,Mostly Cloudy,260,2012-10-07 15:55:00
11:15 AM,46.4,10.4,23,30.25,10.0,WNW,5.8,18.4,N/A,,Mostly Cloudy,300,2012-10-07 16:15:00
11:35 AM,48.2,10.4,22,30.24,10.0,NW,8.1,-,N/A,,Scattered Clouds,320,2012-10-07 16:35:00
11:55 AM,48.2,10.4,22,30.24,10.0,Calm,Calm,-,N/A,,Scattered Clouds,0,2012-10-07 16:55:00
12:35 PM,50.0,8.6,19,30.23,10.0,WNW,11.5,18.4,N/A,,Clear,290,2012-10-07 17:35:00
12:55 PM,51.8,8.6,18,30.23,10.0,WNW,5.8,16.1,N/A,,Clear,300,2012-10-07 17:55:00
1:15 PM,51.8,6.8,16,30.22,10.0,West,11.5,16.1,N/A,,Clear,260,2012-10-07 18:15:00
1:35 PM,51.8,6.8,16,30.20,10.0,NNW,4.6,-,N/A,,Clear,340,2012-10-07 18:35:00
1:55 PM,51.8,5.0,15,30.19,10.0,NW,5.8,-,N/A,,Clear,310,2012-10-07 18:55:00
2:15 PM,53.6,5.0,14,30.18,10.0,WNW,3.5,-,N/A,,Clear,290,2012-10-07 19:15:00
2:35 PM,53.6,3.2,13,30.18,10.0,West,9.2,18.4,N/A,,Clear,260,2012-10-07 19:35:00
2:55 PM,53.6,1.4,12,30.17,10.0,WSW,3.5,-,N/A,,Clear,250,2012-10-07 19:55:00
3:15 PM,53.6,3.2,13,30.16,10.0,SW,11.5,-,N/A,,Clear,230,2012-10-07 20:15:00
3:35 PM,53.6,-0.4,11,30.15,10.0,WNW,10.4,17.3,N/A,,Clear,290,2012-10-07 20:35:00
3:55 PM,55.4,1.4,11,30.14,10.0,West,12.7,-,N/A,,Clear,280,2012-10-07 20:55:00
4:15 PM,53.6,-2.2,10,30.14,10.0,West,8.1,-,N/A,,Clear,270,2012-10-07 21:15:00
4:35 PM,53.6,-0.4,11,30.13,10.0,WSW,6.9,-,N/A,,Clear,250,2012-10-07 21:35:00
4:55 PM,53.6,-0.4,11,30.14,10.0,SW,6.9,-,N/A,,Clear,230,2012-10-07 21:55:00
5:15 PM,53.6,1.4,12,30.14,10.0,WSW,8.1,-,N/A,,Clear,240,2012-10-07 22:15:00
5:35 PM,53.6,-0.4,11,30.13,10.0,WSW,8.1,-,N/A,,Clear,240,2012-10-07 22:35:00
5:55 PM,51.8,3.2,14,30.13,10.0,WSW,6.9,-,N/A,,Clear,250,2012-10-07 22:55:00
6:15 PM,51.8,6.8,16,30.13,10.0,SW,4.6,-,N/A,,Clear,230,2012-10-07 23:15:00
6:35 PM,48.2,10.4,22,30.13,10.0,SSW,3.5,-,N/A,,Clear,210,2012-10-07 23:35:00
6:55 PM,44.6,12.2,27,30.13,10.0,SSW,3.5,-,N/A,,Clear,210,2012-10-07 23:55:00
7:15 PM,42.8,15.8,34,30.13,10.0,South,3.5,-,N/A,,Clear,190,2012-10-08 00:15:00
7:55 PM,39.2,17.6,42,30.13,10.0,South,4.6,-,N/A,,Clear,170,2012-10-08 00:55:00
8:15 PM,37.4,19.4,48,30.13,10.0,South,3.5,-,N/A,,Clear,170,2012-10-08 01:15:00
8:35 PM,37.4,21.2,52,30.13,10.0,Calm,Calm,-,N/A,,Clear,0,2012-10-08 01:35:00
8:55 PM,37.4,21.2,52,30.13,10.0,Calm,Calm,-,N/A,,Clear,0,2012-10-08 01:55:00
9:15 PM,35.6,21.2,56,30.13,10.0,Calm,Calm,-,N/A,,Clear,0,2012-10-08 02:15:00
9:35 PM,35.6,21.2,56,30.13,10.0,Calm,Calm,-,N/A,,Clear,0,2012-10-08 02:35:00
9:55 PM,33.8,21.2,60,30.13,10.0,Calm,Calm,-,N/A,,Clear,0,2012-10-08 02:55:00
10:15 PM,33.8,19.4,56,30.13,10.0,Calm,Calm,-,N/A,,Clear,0,2012-10-08 03:15:00
10:35 PM,33.8,21.2,60,30.13,10.0,Calm,Calm,-,N/A,,Clear,0,2012-10-08 03:35:00
10:55 PM,33.8,21.2,60,30.13,10.0,Calm,Calm,-,N/A,,Clear,0,2012-10-08 03:55:00
11:15 PM,30.2,21.2,69,30.13,10.0,Calm,Calm,-,N/A,,Clear,0,2012-10-08 04:15:00
11:35 PM,30.2,21.2,69,30.12,10.0,Calm,Calm,-,N/A,,Clear,0,2012-10-08 04:35:00
11:55 PM,32.0,21.2,64,30.12,10.0,Calm,Calm,-,N/A,,Clear,0,2012-10-08 04:55:00